{"data":{"norad_id":40976,"epoch":"2026-09-19T17:37:36.112800Z","epoch_age_seconds":84224,"freshness":"FRESH","line1":"1 40976U 15058N   26262.73444575  .00000975  00000+0  10093-3 0  9998","line2":"2 40976  64.7753   2.1036 0138564  25.4186 335.3654 14.89618916130348","mean_motion":14.89618916,"eccentricity":0.0138564,"inclination_deg":64.7753,"raan_deg":2.1036,"arg_perigee_deg":25.4186,"mean_anomaly_deg":335.3654,"bstar":0.00010093,"rev_number":13034,"period_min":96.66901947424,"perigee_km":502.44565214277,"apogee_km":695.80512932469,"semimajor_km":6977.2623907337,"source":"CELESTRAK","updated_at":"2026-09-20T09:00:48.030615Z"}}